Hourly Data Report for May 28, 2012

All times are specified in Local Standard Time (LST). Add 1 hour to adjust for Daylight Saving Time where and when it is observed.

HAMILTON A
ONTARIO

43°10'25.000" N
79°56'06.000" W
237.70 m
6153193
71263
YHM

Download Data

Hourly Data (May 2012)
Hourly Data Report for May 28, 2012
Temp Definition
°C
Dew Point Temp Definition
°C
Rel Hum Definition
%
Wind Dir Definition
10's deg

Wind Spd Definition
km/h
Visibility Definition
km
Stn Press Definition
kPa
Hmdx Definition


Wind Chill Definition


Weather Definition


TIME
00:00
01:00 Legend Double Dagger 15.7 13.6 87 14 5 10.0 98.70     Mainly Clear
02:00 Legend Double Dagger 15.9 14.6 92 18 9 10.0 98.64     LegendNANA
03:00 Legend Double Dagger 16.4 15.1 92 18 9 10.0 98.62     LegendNANA
04:00 Legend Double Dagger 15.9 15.0 94 19 5 10.0 98.58     Mostly Cloudy
05:00 Legend Double Dagger 15.7 14.9 95 22 6 10.0 98.58     LegendNANA
06:00 Legend Double Dagger 16.7 15.7 94 22 9 10.0 98.60     LegendNANA
07:00 Legend Double Dagger 19.3 16.8 85 22 12 10.0 98.63     Mainly Clear
08:00 Legend Double Dagger 21.8 18.5 81 24 17 10.0 98.62 28   LegendNANA
09:00 Legend Double Dagger 25.0 20.4 75 24 18 10.0 98.56 33   LegendNANA
10:00 Legend Double Dagger 27.6 20.1 63 22 20 10.0 98.53 35   Mainly Clear
11:00 Legend Double Dagger 28.8 19.6 57 26 18 10.0 98.47 36   LegendNANA
12:00 Legend Double Dagger 30.4 18.7 49 23 23 10.0 98.39 37   LegendNANA
13:00 Legend Double Dagger 31.4 16.9 41 23 33 10.0 98.33 37   Mainly Clear
14:00 Legend Double Dagger 31.7 18.2 44 21 28 10.0 98.26 38   LegendNANA
15:00 Legend Double Dagger 31.1 18.0 45 23 29 10.0 98.23 37   LegendNANA
16:00 Legend Double Dagger 30.8 17.0 43 22 37 10.0 98.21 36   Mostly Cloudy
17:00 Legend Double Dagger 30.3 16.9 44 22 33 10.0 98.20 36   LegendNANA
18:00 Legend Double Dagger 29.8 16.8 45 21 26 10.0 98.14 35   LegendNANA
19:00 Legend Double Dagger 28.4 16.6 48 20 18 10.0 98.09 33   Mainly Clear
20:00 Legend Double Dagger 26.6 17.6 57 20 15 10.0 98.02 32   LegendNANA
21:00 Legend Double Dagger 25.0 16.6 59 20 15 10.0 98.02 30   LegendNANA
22:00 Legend Double Dagger 23.6 16.8 65 20 18 10.0 98.05 29   Mainly Clear
23:00 Legend Double Dagger 22.9 18.1 74 20 15 10.0 98.03 29   LegendNANA

Notes on Data Quality.

Legend

  • E = Estimated
  • M = Missing
  • NA = Not Available
  • ‡ = Partner data that is not subject to review by the National Climate Archives
Date modified: